Weather History for Surat Thani, Thailand

Change the Weather History Date:

Monday, September 24, 2012

  Actual Average Record
Temperature  
Mean Temperature 83 °F -  
Max Temperature 91 °F 88 °F - ()
Min Temperature 75 °F 73 °F - ()
Cooling Degree Days 18    
Growing Degree Days 33 (Base 50)    
Moisture  
Dew Point 75 °F    
Average Humidity 78    
Maximum Humidity 100    
Minimum Humidity 53    
Precipitation  
Precipitation 0.00 in 0.31 in - ()
Sea Level Pressure  
Sea Level Pressure 29.75 in    
Wind  
Wind Speed 4 mph ()    
Max Wind Speed 12 mph    
Max Gust Speed -    
Visibility 5.1 miles    
Events Rain    
T = Trace of Precipitation, MM = Missing Value Source: Averaged Metar Reports

Daily Weather History Graph

Daily Weather History Graph

Search for Another Location

Airport:

Trip Planner

Search our weather history database for the weather conditions in past years. The results will help you decide how hot, cold, wet, or windy it might be!

Date:

Astronomy

Sep. 24, 2012 Rise Set
Actual Time 6:12 AM ICT 6:18 PM ICT
Civil Twilight 5:51 AM ICT 6:39 PM ICT
Nautical Twilight 5:27 AM ICT 7:03 PM ICT
Astronomical Twilight 5:02 AM ICT 7:27 PM ICT
Moon 1:47 PM ICT (9/24) 12:53 AM ICT (9/24)
Length of Visible Light 12h 47m
Length of Day
12h 05m
Waxing Gibbous, 65% of the Moon is Illuminated
Sep 24
Waxing Gibbous
Sep 30
Full
Oct 8
Last Quarter
Oct 15
New
Oct 22
First Quarter

Hourly Weather History & Observations

Time (ICT) Temp. Heat Index Dew Point Humidity Pressure Visibility Wind Dir Wind Speed Gust Speed Precip Events Conditions
1:00 AM 77 °F - 76 °F 94% 29.80 in 4 mi Calm Calm - -   Mist
6:00 AM 75.2 °F - 75.2 °F 100% 29.74 in 3.1 mi South 2.3 mph - N/A   Mostly Cloudy
7:00 AM 76 °F - 74 °F 93% 29.78 in 4 mi Calm Calm - -   Mist
7:00 AM 75.2 °F - 75.2 °F 100% 29.77 in 4.3 mi Calm Calm - N/A   Mostly Cloudy
8:00 AM 78.8 °F - 77.0 °F 94% 29.80 in 6.2 mi Calm Calm - N/A   Mostly Cloudy
9:00 AM 82.4 °F 90.9 °F 77.0 °F 84% 29.83 in 6.2 mi WSW 10.4 mph - N/A   Mostly Cloudy
10:00 AM 86.0 °F 95.1 °F 75.2 °F 70% 29.80 in 6.2 mi WSW 8.1 mph - N/A   Mostly Cloudy
11:00 AM 87.8 °F 99.7 °F 77.0 °F 70% 29.77 in 6.2 mi WNW 6.9 mph - N/A   Mostly Cloudy
12:00 PM 87.8 °F 97.6 °F 75.2 °F 66% 29.77 in 6.2 mi West 6.9 mph - N/A   Mostly Cloudy
1:00 PM 91 °F - 76 °F 53% 29.74 in 6 mi West 5.8 mph - -   Scattered Clouds
1:00 PM 89.6 °F 98.2 °F 73.4 °F 59% 29.74 in 6.2 mi West 11.5 mph - N/A   Mostly Cloudy
2:00 PM 87.8 °F 95.6 °F 73.4 °F 62% 29.68 in 5.0 mi West 9.2 mph - N/A   Mostly Cloudy
4:00 PM 87.8 °F 97.6 °F 75.2 °F 66% 29.68 in 6.2 mi West 6.9 mph - N/A   Mostly Cloudy
5:00 PM 87.8 °F 97.6 °F 75.2 °F 66% 29.68 in 5.0 mi SW 11.5 mph - N/A   Mostly Cloudy
6:00 PM 84.2 °F 92.3 °F 75.2 °F 74% 29.71 in 5.0 mi SW 11.5 mph - N/A   Mostly Cloudy
7:00 PM 83 °F - 74 °F 68% 29.73 in 5 mi Calm Calm - -   Mist
7:00 PM 82.4 °F 89.5 °F 75.2 °F 79% 29.74 in 4.3 mi WSW 6.9 mph - N/A Rain Light Rain
8:00 PM 78.8 °F - 75.2 °F 89% 29.74 in 4.3 mi South 3.5 mph - N/A   Mostly Cloudy
9:00 PM 78.8 °F - 75.2 °F 89% 29.77 in 4.3 mi SSW 3.5 mph - N/A   Mostly Cloudy